HVK1T LTAN-ETNW

Flight info

Callsign HVK1T
Flight time N/A
Altitude 38000
Route HISAR UB545 KFK UM855 SISPI UT615 SULTA UW714 YAA UA16 FENER UT264 TUDBU Q26 UPAMA DCT LAMIT DCT ARCAZ DCT BALAP DCT TIBLA DCT HDO DCT ODLUN Y233 EMBOX L986 SAS L980 ROBEG
Aircraft A400/H-SDE3FGHIRWY/L4T

Departure

Time 2026-04-22 16:47
Airport Konya Airport (LTAN)

Arrival

Time N/A
Airport Wunstorf Air Base (ETNW)
Time Latitude Longitude Altitude Speed Heading
2026-04-22 16:31 37.98259 32.55715 3400 ft 0 kts 18°
2026-04-22 16:42 37.98275 32.55721 3400 ft 6 kts 18°
2026-04-22 16:43 37.98319 32.55749 3401 ft 3 kts 60°
2026-04-22 16:43 37.98307 32.55797 3400 ft 9 kts 107°
2026-04-22 16:43 37.98280 32.55904 3400 ft 16 kts 108°
2026-04-22 16:43 37.98263 32.56050 3401 ft 16 kts 68°
2026-04-22 16:44 37.98375 32.56123 3399 ft 20 kts 17°
2026-04-22 16:44 37.98518 32.56177 3398 ft 22 kts 15°
2026-04-22 16:44 37.98670 32.56235 3398 ft 23 kts 18°
2026-04-22 16:44 37.98827 32.56294 3400 ft 24 kts 15°
2026-04-22 16:45 37.98986 32.56355 3400 ft 24 kts 17°
2026-04-22 16:45 37.99146 32.56417 3402 ft 24 kts 17°
2026-04-22 16:45 37.99302 32.56476 3401 ft 20 kts 17°
2026-04-22 16:45 37.99379 32.56533 3401 ft 10 kts 16°
2026-04-22 16:46 37.99380 32.56506 3401 ft 8 kts 214°
2026-04-22 16:46 37.99344 32.56492 3401 ft 0 kts 196°
2026-04-22 16:46 37.99343 32.56492 3401 ft 1 kts 196°
2026-04-22 16:46 37.99338 32.56490 3401 ft 0 kts 196°
2026-04-22 16:47 37.99100 32.56400 3401 ft 99 kts 197°
2026-04-22 16:47 37.98122 32.56051 3616 ft 173 kts 201°
2026-04-22 16:47 37.97308 32.55758 4168 ft 184 kts 200°
2026-04-22 16:47 37.95545 32.55165 5380 ft 213 kts 198°
2026-04-22 16:48 37.94156 32.54530 6588 ft 210 kts 221°
2026-04-22 16:48 37.93498 32.53429 7585 ft 207 kts 252°